Time,TemperatureF,DewpointF,PressureIn,WindDirection,WindDirectionDegrees,WindSpeedMPH,WindSpeedGustMPH,Humidity,HourlyPrecipIn,Conditions,Clouds,dailyrainin,SolarRadiationWatts/m^2,SoftwareType,DateUTC
2013-06-23 00:01:00,61.0,61.0,-100.00,ESE,118,3.0,4.0,99,0.00,,,0.01,0.000000,,2013-06-23 04:01:00,
2013-06-23 00:21:00,61.0,61.0,-100.00,SE,140,3.0,6.0,100,0.00,,,-99.99,0.000000,,2013-06-23 04:21:00,
2013-06-23 00:31:00,61.0,61.0,-100.00,SE,140,3.0,6.0,100,0.00,,,-99.99,0.000000,,2013-06-23 04:31:00,
2013-06-23 00:42:00,61.0,61.0,-100.00,SE,140,3.0,6.0,100,0.00,,,-99.99,0.000000,,2013-06-23 04:42:00,
2013-06-23 00:52:00,61.0,61.0,-100.00,SE,140,3.0,6.0,100,0.00,,,-99.99,0.000000,,2013-06-23 04:52:00,
2013-06-23 01:01:00,61.0,61.0,-100.00,SE,140,3.0,6.0,100,0.00,,,-99.99,0.000000,,2013-06-23 05:01:00,
2013-06-23 01:22:00,60.0,60.0,-100.00,SSE,165,4.0,10.0,100,0.00,,,0.01,0.000000,,2013-06-23 05:22:00,
2013-06-23 01:32:00,60.0,60.0,-100.00,SSE,165,4.0,10.0,100,0.00,,,0.01,0.000000,,2013-06-23 05:32:00,
2013-06-23 01:42:00,60.0,60.0,-100.00,SSE,165,4.0,10.0,100,0.00,,,0.01,0.000000,,2013-06-23 05:42:00,
2013-06-23 01:52:00,60.0,60.0,-100.00,SSE,165,4.0,10.0,100,0.00,,,0.01,0.000000,,2013-06-23 05:52:00,
2013-06-23 02:02:00,60.0,60.0,-100.00,SSE,165,4.0,10.0,100,0.00,,,0.01,0.000000,,2013-06-23 06:02:00,
2013-06-23 02:22:00,60.0,60.0,-100.00,SSE,161,5.0,9.0,100,0.00,,,0.01,0.000000,,2013-06-23 06:22:00,
2013-06-23 02:33:00,60.0,60.0,-100.00,SSE,161,5.0,9.0,100,0.00,,,0.01,0.000000,,2013-06-23 06:33:00,
2013-06-23 02:43:00,60.0,60.0,-100.00,SSE,161,5.0,9.0,100,0.00,,,0.01,0.000000,,2013-06-23 06:43:00,
2013-06-23 02:52:00,60.0,60.0,-100.00,SSE,161,5.0,9.0,100,0.00,,,0.01,0.000000,,2013-06-23 06:52:00,
2013-06-23 03:02:00,60.0,60.0,-100.00,SSE,161,5.0,9.0,100,0.00,,,0.01,0.000000,,2013-06-23 07:02:00,
2013-06-23 03:22:00,60.0,60.0,-100.00,SSE,158,5.0,10.0,100,0.00,,,0.01,0.000000,,2013-06-23 07:22:00,
2013-06-23 03:34:00,60.0,60.0,-100.00,SSE,158,5.0,10.0,100,0.00,,,0.01,0.000000,,2013-06-23 07:34:00,
2013-06-23 03:43:00,60.0,60.0,-100.00,SSE,158,5.0,10.0,100,0.00,,,0.01,0.000000,,2013-06-23 07:43:00,
2013-06-23 03:53:00,60.0,60.0,-100.00,SSE,158,5.0,10.0,100,0.00,,,0.01,0.000000,,2013-06-23 07:53:00,
2013-06-23 04:02:00,60.0,60.0,-100.00,SSE,158,5.0,10.0,100,0.00,,,0.01,0.000000,,2013-06-23 08:02:00,
2013-06-23 04:22:00,60.0,60.0,-100.00,SSE,157,4.0,10.0,100,0.00,,,0.01,0.000000,,2013-06-23 08:22:00,
2013-06-23 04:34:00,60.0,60.0,-100.00,SSE,157,4.0,10.0,100,0.00,,,0.01,0.000000,,2013-06-23 08:34:00,
2013-06-23 04:43:00,60.0,60.0,-100.00,SSE,157,4.0,10.0,100,0.00,,,0.01,0.000000,,2013-06-23 08:43:00,
2013-06-23 04:53:00,60.0,60.0,-100.00,SSE,157,4.0,10.0,100,0.00,,,0.01,0.000000,,2013-06-23 08:53:00,
2013-06-23 05:02:00,60.0,60.0,-100.00,SSE,157,4.0,10.0,100,0.00,,,0.01,0.000000,,2013-06-23 09:02:00,
2013-06-23 05:22:00,60.0,60.0,-100.00,SE,142,4.0,9.0,100,0.00,,,0.01,0.000000,,2013-06-23 09:22:00,
2013-06-23 05:34:00,60.0,60.0,-100.00,SE,142,4.0,9.0,100,0.00,,,0.01,0.000000,,2013-06-23 09:34:00,
2013-06-23 05:43:00,60.0,60.0,-100.00,SE,142,4.0,9.0,100,0.00,,,0.01,0.000000,,2013-06-23 09:43:00,
2013-06-23 05:54:00,60.0,60.0,-100.00,SE,142,4.0,9.0,100,0.00,,,0.01,0.000000,,2013-06-23 09:54:00,
2013-06-23 06:02:00,60.0,60.0,-100.00,SE,142,4.0,9.0,100,0.00,,,0.01,0.000000,,2013-06-23 10:02:00,
2013-06-23 06:22:00,60.0,60.0,-100.00,ESE,103,3.0,8.0,100,0.00,,,0.01,0.000000,,2013-06-23 10:22:00,
2013-06-23 06:34:00,60.0,60.0,-100.00,ESE,103,3.0,8.0,100,0.00,,,0.01,0.000000,,2013-06-23 10:34:00,
2013-06-23 06:43:00,60.0,60.0,-100.00,ESE,103,3.0,8.0,100,0.00,,,0.01,0.000000,,2013-06-23 10:43:00,
2013-06-23 06:53:00,60.0,60.0,-100.00,ESE,103,3.0,8.0,100,0.00,,,0.01,0.000000,,2013-06-23 10:53:00,
2013-06-23 07:02:00,60.0,60.0,-100.00,ESE,103,3.0,8.0,100,0.00,,,0.01,0.000000,,2013-06-23 11:02:00,
2013-06-23 07:22:00,61.0,61.0,-100.00,SSE,153,5.0,11.0,100,0.00,,,0.01,10.000000,,2013-06-23 11:22:00,
2013-06-23 07:33:00,61.0,61.0,-100.00,SSE,153,5.0,11.0,100,0.00,,,0.01,10.000000,,2013-06-23 11:33:00,
2013-06-23 07:43:00,61.0,61.0,-100.00,SSE,153,5.0,11.0,100,0.00,,,0.01,10.000000,,2013-06-23 11:43:00,
2013-06-23 07:53:00,61.0,61.0,-100.00,SSE,153,5.0,11.0,100,0.00,,,0.01,10.000000,,2013-06-23 11:53:00,
2013-06-23 08:01:00,61.0,61.0,-100.00,SSE,153,5.0,11.0,100,0.00,,,0.01,10.000000,,2013-06-23 12:01:00,
2013-06-23 08:22:00,61.0,61.0,-100.00,SSE,153,3.0,7.0,100,0.00,,,0.01,39.000000,,2013-06-23 12:22:00,
2013-06-23 08:34:00,61.0,61.0,-100.00,SSE,153,3.0,7.0,100,0.00,,,0.01,39.000000,,2013-06-23 12:34:00,
2013-06-23 08:43:00,61.0,61.0,-100.00,SSE,153,3.0,7.0,100,0.00,,,0.01,39.000000,,2013-06-23 12:43:00,
2013-06-23 08:53:00,61.0,61.0,-100.00,SSE,153,3.0,7.0,100,0.00,,,0.01,39.000000,,2013-06-23 12:53:00,
2013-06-23 09:02:00,61.0,61.0,-100.00,SSE,153,3.0,7.0,100,0.00,,,0.01,39.000000,,2013-06-23 13:02:00,
2013-06-23 09:04:00,61.0,61.0,-100.00,SE,144,4.0,7.0,100,0.00,,,0.01,50.000000,,2013-06-23 13:04:00,
2013-06-23 09:24:00,61.0,61.0,-100.00,SE,144,4.0,7.0,100,0.00,,,0.01,50.000000,,2013-06-23 13:24:00,
2013-06-23 09:34:00,61.0,61.0,-100.00,SE,144,4.0,7.0,100,0.00,,,0.01,50.000000,,2013-06-23 13:34:00,
2013-06-23 09:43:00,61.0,61.0,-100.00,SE,144,4.0,7.0,100,0.00,,,0.01,50.000000,,2013-06-23 13:43:00,
2013-06-23 09:54:00,61.0,61.0,-100.00,SE,144,4.0,7.0,100,0.00,,,0.01,50.000000,,2013-06-23 13:54:00,
2013-06-23 10:04:00,61.0,61.0,-100.00,SSE,152,5.0,10.0,100,0.00,,,0.01,85.000000,,2013-06-23 14:04:00,
2013-06-23 10:22:00,61.0,61.0,-100.00,SSE,152,5.0,10.0,100,0.00,,,0.01,85.000000,,2013-06-23 14:22:00,
2013-06-23 10:34:00,61.0,61.0,-100.00,SSE,152,5.0,10.0,100,0.00,,,0.01,85.000000,,2013-06-23 14:34:00,
2013-06-23 10:44:00,61.0,61.0,-100.00,SSE,152,5.0,10.0,100,0.00,,,0.01,85.000000,,2013-06-23 14:44:00,
2013-06-23 10:52:00,61.0,61.0,-100.00,SSE,152,5.0,10.0,100,0.00,,,0.01,85.000000,,2013-06-23 14:52:00,
2013-06-23 11:04:00,62.0,62.0,-100.00,SSE,155,4.0,9.0,100,0.04,,,0.05,78.000000,,2013-06-23 15:04:00,
2013-06-23 11:35:00,62.0,62.0,-100.00,SSE,155,4.0,9.0,100,0.04,,,0.05,78.000000,,2013-06-23 15:35:00,
2013-06-23 11:43:00,62.0,62.0,-100.00,SSE,155,4.0,9.0,100,0.04,,,0.05,78.000000,,2013-06-23 15:43:00,
2013-06-23 11:53:00,62.0,62.0,-100.00,SSE,155,4.0,9.0,100,0.04,,,0.05,78.000000,,2013-06-23 15:53:00,
2013-06-23 12:04:00,63.0,63.0,-100.00,SSE,162,7.0,11.0,100,0.00,,,0.05,202.000000,,2013-06-23 16:04:00,
2013-06-23 12:22:00,63.0,63.0,-100.00,SSE,162,7.0,11.0,100,0.00,,,0.05,202.000000,,2013-06-23 16:22:00,
2013-06-23 12:36:00,63.0,63.0,-100.00,SSE,162,7.0,11.0,100,0.00,,,0.05,202.000000,,2013-06-23 16:36:00,
2013-06-23 12:43:00,63.0,63.0,-100.00,SSE,162,7.0,11.0,100,0.00,,,0.05,202.000000,,2013-06-23 16:43:00,
2013-06-23 12:53:00,63.0,63.0,-100.00,SSE,162,7.0,11.0,100,0.00,,,0.05,202.000000,,2013-06-23 16:53:00,
2013-06-23 13:22:00,65.0,64.0,-100.00,SW,216,7.0,13.0,98,0.00,,,0.05,174.000000,,2013-06-23 17:22:00,
2013-06-23 13:34:00,65.0,64.0,-100.00,SW,216,7.0,13.0,98,0.00,,,0.05,174.000000,,2013-06-23 17:34:00,
2013-06-23 13:43:00,65.0,64.0,-100.00,SW,216,7.0,13.0,98,0.00,,,0.05,174.000000,,2013-06-23 17:43:00,
2013-06-23 13:53:00,65.0,64.0,-100.00,SW,216,7.0,13.0,98,0.00,,,0.05,174.000000,,2013-06-23 17:53:00,
2013-06-23 14:01:00,65.0,64.0,-100.00,SW,216,7.0,13.0,98,0.00,,,0.05,174.000000,,2013-06-23 18:01:00,
2013-06-23 14:34:00,67.0,66.0,-100.00,SSW,208,8.0,12.0,95,0.00,,,0.05,177.000000,,2013-06-23 18:34:00,
2013-06-23 14:43:00,67.0,66.0,-100.00,SSW,208,8.0,12.0,95,0.00,,,0.05,177.000000,,2013-06-23 18:43:00,
2013-06-23 14:53:00,67.0,66.0,-100.00,SSW,208,8.0,12.0,95,0.00,,,0.05,177.000000,,2013-06-23 18:53:00,
2013-06-23 15:01:00,67.0,66.0,-100.00,SSW,208,8.0,12.0,95,0.00,,,0.05,177.000000,,2013-06-23 19:01:00,
2013-06-23 15:22:00,68.0,66.0,-100.00,SW,216,9.0,13.0,93,0.00,,,0.05,230.000000,,2013-06-23 19:22:00,
2013-06-23 15:32:00,68.0,66.0,-100.00,SW,216,9.0,13.0,93,0.00,,,0.05,230.000000,,2013-06-23 19:32:00,
2013-06-23 15:43:00,68.0,66.0,-100.00,SW,216,9.0,13.0,93,0.00,,,0.05,230.000000,,2013-06-23 19:43:00,
2013-06-23 15:53:00,68.0,66.0,-100.00,SW,216,9.0,13.0,93,0.00,,,0.05,230.000000,,2013-06-23 19:53:00,
2013-06-23 16:02:00,68.0,66.0,-100.00,SW,216,9.0,13.0,93,0.00,,,0.05,230.000000,,2013-06-23 20:02:00,
2013-06-23 16:24:00,73.0,66.0,-100.00,SW,217,12.0,18.0,79,0.00,,,-99.99,585.000000,,2013-06-23 20:24:00,
2013-06-23 16:34:00,73.0,66.0,-100.00,SW,217,12.0,18.0,79,0.00,,,-99.99,585.000000,,2013-06-23 20:34:00,
2013-06-23 16:42:00,73.0,66.0,-100.00,SW,217,12.0,18.0,79,0.00,,,-99.99,585.000000,,2013-06-23 20:42:00,
2013-06-23 16:53:00,73.0,66.0,-100.00,SW,217,12.0,18.0,79,0.00,,,-99.99,585.000000,,2013-06-23 20:53:00,
2013-06-23 17:01:00,73.0,66.0,-100.00,SW,217,12.0,18.0,79,0.00,,,-99.99,585.000000,,2013-06-23 21:01:00,
2013-06-23 17:22:00,78.0,65.0,-100.00,SSW,209,15.0,21.0,65,0.00,,,0.05,692.000000,,2013-06-23 21:22:00,
2013-06-23 17:34:00,78.0,65.0,-100.00,SSW,209,15.0,21.0,65,0.00,,,0.05,692.000000,,2013-06-23 21:34:00,
2013-06-23 17:44:00,78.0,65.0,-100.00,SSW,209,15.0,21.0,65,0.00,,,0.05,692.000000,,2013-06-23 21:44:00,
2013-06-23 17:52:00,78.0,65.0,-100.00,SSW,209,15.0,21.0,65,0.00,,,0.05,692.000000,,2013-06-23 21:52:00,
2013-06-23 18:01:00,78.0,65.0,-100.00,SSW,209,15.0,21.0,65,0.00,,,0.05,692.000000,,2013-06-23 22:01:00,
2013-06-23 18:22:00,79.0,64.0,-100.00,SW,221,13.0,24.0,61,0.00,,,0.05,164.000000,,2013-06-23 22:22:00,
2013-06-23 18:32:00,79.0,64.0,-100.00,SW,221,13.0,24.0,61,0.00,,,0.05,164.000000,,2013-06-23 22:32:00,
2013-06-23 18:43:00,79.0,64.0,-100.00,SW,221,13.0,24.0,61,0.00,,,0.05,164.000000,,2013-06-23 22:43:00,
2013-06-23 18:53:00,79.0,64.0,-100.00,SW,221,13.0,24.0,61,0.00,,,0.05,164.000000,,2013-06-23 22:53:00,
2013-06-23 19:01:00,79.0,64.0,-100.00,SW,221,13.0,24.0,61,0.00,,,0.05,164.000000,,2013-06-23 23:01:00,
2013-06-23 19:22:00,79.0,63.0,-100.00,SSW,209,10.0,17.0,59,0.00,,,0.05,303.000000,,2013-06-23 23:22:00,
2013-06-23 19:33:00,79.0,63.0,-100.00,SSW,209,10.0,17.0,59,0.00,,,0.05,303.000000,,2013-06-23 23:33:00,
2013-06-23 19:44:00,79.0,63.0,-100.00,SSW,209,10.0,17.0,59,0.00,,,0.05,303.000000,,2013-06-23 23:44:00,
2013-06-23 19:52:00,79.0,63.0,-100.00,SSW,209,10.0,17.0,59,0.00,,,0.05,303.000000,,2013-06-23 23:52:00,
2013-06-23 20:01:00,79.0,63.0,-100.00,SSW,209,10.0,17.0,59,0.00,,,0.05,303.000000,,2013-06-24 00:01:00,
2013-06-23 20:22:00,78.0,64.0,-100.00,SW,232,9.0,18.0,62,0.00,,,0.05,168.000000,,2013-06-24 00:22:00,
2013-06-23 20:33:00,78.0,64.0,-100.00,SW,232,9.0,18.0,62,0.00,,,0.05,168.000000,,2013-06-24 00:33:00,
2013-06-23 20:43:00,78.0,64.0,-100.00,SW,232,9.0,18.0,62,0.00,,,0.05,168.000000,,2013-06-24 00:43:00,
2013-06-23 20:52:00,78.0,64.0,-100.00,SW,232,9.0,18.0,62,0.00,,,0.05,168.000000,,2013-06-24 00:52:00,
2013-06-23 21:02:00,78.0,64.0,-100.00,SW,232,9.0,18.0,62,0.00,,,0.05,168.000000,,2013-06-24 01:02:00,
2013-06-23 21:22:00,74.0,65.0,-100.00,SW,220,6.0,14.0,73,0.00,,,0.04,84.000000,,2013-06-24 01:22:00,
2013-06-23 21:32:00,74.0,65.0,-100.00,SW,220,6.0,14.0,73,0.00,,,0.04,84.000000,,2013-06-24 01:32:00,
2013-06-23 21:42:00,74.0,65.0,-100.00,SW,220,6.0,14.0,73,0.00,,,0.04,84.000000,,2013-06-24 01:42:00,
2013-06-23 21:53:00,74.0,65.0,-100.00,SW,220,6.0,14.0,73,0.00,,,0.04,84.000000,,2013-06-24 01:53:00,
2013-06-23 22:02:00,74.0,65.0,-100.00,SW,220,6.0,14.0,73,0.00,,,0.04,84.000000,,2013-06-24 02:02:00,
2013-06-23 22:22:00,68.0,63.0,-100.00,South,190,7.0,10.0,83,0.00,,,0.04,6.000000,,2013-06-24 02:22:00,
2013-06-23 22:33:00,68.0,63.0,-100.00,South,190,7.0,10.0,83,0.00,,,0.04,6.000000,,2013-06-24 02:33:00,
2013-06-23 22:42:00,68.0,63.0,-100.00,South,190,7.0,10.0,83,0.00,,,0.04,6.000000,,2013-06-24 02:42:00,
2013-06-23 22:53:00,68.0,63.0,-100.00,South,190,7.0,10.0,83,0.00,,,0.04,6.000000,,2013-06-24 02:53:00,
2013-06-23 23:01:00,68.0,63.0,-100.00,South,190,7.0,10.0,83,0.00,,,0.04,6.000000,,2013-06-24 03:01:00,
2013-06-23 23:22:00,66.0,63.0,-100.00,SSW,201,5.0,9.0,91,0.00,,,0.04,0.000000,,2013-06-24 03:22:00,
2013-06-23 23:33:00,66.0,63.0,-100.00,SSW,201,5.0,9.0,91,0.00,,,0.04,0.000000,,2013-06-24 03:33:00,
2013-06-23 23:43:00,66.0,63.0,-100.00,SSW,201,5.0,9.0,91,0.00,,,0.04,0.000000,,2013-06-24 03:43:00,
2013-06-23 23:53:00,66.0,63.0,-100.00,SSW,201,5.0,9.0,91,0.00,,,0.04,0.000000,,2013-06-24 03:53:00,